Flag for Venezuela Weather past 2 weeks in Caracas, Venezuela

Now
81 °F

Passing clouds.


Feels Like: 86 °F
Forecast: 67 / 72 °F
Wind: 5 mph from Northeast

Location: Caracas / Maiquetia Aerop. Intl. Simon Bolivar

Current Time: Feb 27, 2015 at 10:04:42 PM

Latest Report: Feb 27, 2015 at 8:30 PM


Visibility: N/A

Pressure: 29.92 "Hg

Humidity: 84%

Dew point: 75 °F

Location of CaracasLocation

Historic Weather in Caracas — Graph

°F

Caracas temperature yesterday

Maximum temperature yesterday: 90 °F (at 1:30 PM)
Minimum temperature yesterday: 77 °F (at 1:30 AM)
Average temperature yesterday: 82 °F

Past Weeks' High & Low Weather Summary

 TemperatureHumidityPressure
High91 °F (Feb 13, 12:30 PM)94% (Feb 15, 11:30 PM)30.09 "Hg (Feb 15, 11:30 PM)
Low73 °F (Feb 20, 12:30 AM)58% (Feb 16, 7:30 AM)29.86 "Hg (Feb 19, 7:30 PM)
Average81 °F76%29.97 "Hg
* Reported Feb 12 8:30 PM — Feb 27 8:30 PM, Caracas, Weather by CustomWeather, © 2015

Note: Actual official high and low records may vary slightly from our data, if they occured in-between our weather recording intervals... More about our weather records

Advertising

Caracas weather history for previous 24 hours

 ConditionsComfort  
Time TempWeatherWind HumidityBarometerVisibility
8:30 PM
Fri, Feb 27
81 °FPassing clouds.5 mph84%29.92 "HgN/A
7:30 PM82 °FPassing clouds.5 mph79%29.92 "HgN/A
6:30 PM82 °FPassing clouds.6 mph84%29.89 "HgN/A
5:30 PM86 °FScattered clouds.5 mph75%29.89 "HgN/A
4:30 PM88 °FPassing clouds.3 mph66%29.89 "HgN/A
3:30 PM88 °FPassing clouds.5 mph70%29.92 "HgN/A
2:30 PM90 °FPassing clouds.7 mph71%29.92 "HgN/A
1:30 PM88 °FPassing clouds.7 mph70%29.95 "HgN/A
12:30 PM88 °FPassing clouds.5 mph70%29.95 "HgN/A
11:30 AM90 °FPassing clouds.6 mph67%29.98 "HgN/A
10:30 AM88 °FPassing clouds.7 mph70%30.01 "HgN/A
9:30 AM84 °FPassing clouds.5 mph74%29.98 "HgN/A
8:30 AM81 °FPassing clouds.5 mph74%29.98 "HgN/A
7:30 AM79 °FPassing clouds.6 mph74%29.95 "HgN/A
6:30 AM75 °FScattered clouds.No wind69%29.92 "HgN/A
5:30 AM73 °FPassing clouds.No wind74%29.92 "HgN/A
4:30 AM73 °FPassing clouds.3 mph69%29.89 "HgN/A
3:30 AM73 °FPassing clouds.No wind69%29.89 "HgN/A
2:30 AM73 °FPassing clouds.No wind69%29.92 "HgN/A
1:30 AM73 °FPassing clouds.No wind69%29.92 "HgN/A
12:30 AM75 °FPassing clouds.3 mph74%29.95 "HgN/A
11:30 PM
Thu, Feb 26
79 °FPassing clouds.No wind89%29.95 "HgN/A
10:30 PM81 °FPassing clouds.No wind74%29.95 "HgN/A
Weather by CustomWeather, © 2015

See weather overviewHow to use our weather pages